VHNCO YMEN-YWSL

Flight info

Callsign VHNCO
Flight time 0h 47m
Altitude 3500
Route DSN GMH NRW YNNG DRN YLTV FYN
Aircraft C182/L-SDFG/C

Departure

Time 2026-04-17 09:09
Airport Melbourne Essendon Airport (YMEN)

Arrival

Time 2026-04-17 09:56
Airport West Sale Airport (YWSL)
Time Latitude Longitude Altitude Speed Heading
2026-04-17 08:57 -37.72216 144.89755 266 ft 0 kts 115°
2026-04-17 08:58 -37.72113 144.89862 268 ft 0 kts 103°
2026-04-17 08:59 -37.72113 144.89872 267 ft 0 kts 88°
2026-04-17 09:05 -37.72110 144.89880 267 ft 2 kts 44°
2026-04-17 09:06 -37.72076 144.89909 270 ft 10 kts 45°
2026-04-17 09:06 -37.72056 144.89945 273 ft 0 kts 71°
2026-04-17 09:06 -37.72055 144.89951 274 ft 3 kts 75°
2026-04-17 09:06 -37.72054 144.89974 276 ft 0 kts 77°
2026-04-17 09:07 -37.72053 144.89975 276 ft 2 kts 78°
2026-04-17 09:07 -37.72052 144.90026 281 ft 8 kts 90°
2026-04-17 09:07 -37.72113 144.90079 286 ft 21 kts 183°
2026-04-17 09:08 -37.72470 144.90097 281 ft 78 kts 178°
2026-04-17 09:08 -37.73105 144.90149 455 ft 97 kts 175°
2026-04-17 09:08 -37.73774 144.90363 669 ft 109 kts 145°
2026-04-17 09:08 -37.74123 144.91269 858 ft 129 kts 97°
2026-04-17 09:09 -37.74067 144.92418 1050 ft 132 kts 91°
2026-04-17 09:09 -37.73992 144.93571 1250 ft 134 kts 82°
2026-04-17 09:09 -37.73637 144.94684 1428 ft 138 kts 75°
2026-04-17 09:09 -37.73582 144.95893 1499 ft 143 kts 102°
2026-04-17 09:10 -37.73906 144.98434 1507 ft 148 kts 105°
2026-04-17 09:10 -37.74079 144.99733 1507 ft 151 kts 104°
2026-04-17 09:10 -37.74254 145.01045 1514 ft 152 kts 105°
2026-04-17 09:11 -37.74432 145.02378 1511 ft 155 kts 105°
2026-04-17 09:11 -37.74609 145.03719 1512 ft 155 kts 105°
2026-04-17 09:11 -37.74784 145.05053 1505 ft 153 kts 105°
2026-04-17 09:11 -37.74981 145.06375 1506 ft 152 kts 110°
2026-04-17 09:12 -37.75481 145.07515 1502 ft 147 kts 132°
2026-04-17 09:12 -37.76083 145.08550 1507 ft 147 kts 131°
2026-04-17 09:12 -37.76682 145.09607 1505 ft 149 kts 131°
2026-04-17 09:12 -37.77289 145.10669 1500 ft 149 kts 131°
2026-04-17 09:13 -37.77895 145.11732 1502 ft 148 kts 131°
2026-04-17 09:13 -37.78460 145.12818 1495 ft 148 kts 120°
2026-04-17 09:13 -37.78885 145.13999 1495 ft 147 kts 119°
2026-04-17 09:13 -37.79314 145.15178 1497 ft 148 kts 120°
2026-04-17 09:14 -37.79741 145.16356 1589 ft 145 kts 119°
2026-04-17 09:14 -37.80144 145.17490 1715 ft 142 kts 121°
2026-04-17 09:14 -37.80558 145.18617 1841 ft 141 kts 121°
2026-04-17 09:14 -37.80964 145.19730 1971 ft 140 kts 122°
2026-04-17 09:15 -37.81513 145.20679 2089 ft 131 kts 145°
2026-04-17 09:15 -37.82272 145.21268 2218 ft 127 kts 163°
2026-04-17 09:15 -37.83135 145.21475 2343 ft 126 kts 181°
2026-04-17 09:15 -37.84001 145.21370 2474 ft 125 kts 187°
2026-04-17 09:16 -37.84881 145.21264 2500 ft 130 kts 187°
2026-04-17 09:16 -37.85799 145.21151 2504 ft 133 kts 187°
2026-04-17 09:16 -37.86719 145.21032 2507 ft 135 kts 187°
2026-04-17 09:16 -37.87658 145.20921 2506 ft 136 kts 188°
2026-04-17 09:17 -37.88606 145.20801 2497 ft 137 kts 188°
2026-04-17 09:17 -37.89558 145.20682 2500 ft 138 kts 188°
2026-04-17 09:17 -37.90510 145.20563 2499 ft 137 kts 188°
2026-04-17 09:17 -37.91463 145.20444 2503 ft 137 kts 188°
2026-04-17 09:18 -37.92411 145.20325 2510 ft 138 kts 188°
2026-04-17 09:18 -37.93368 145.20205 2504 ft 138 kts 188°
2026-04-17 09:18 -37.94319 145.20088 2507 ft 137 kts 187°
2026-04-17 09:18 -37.95283 145.20237 2501 ft 141 kts 167°
2026-04-17 09:19 -37.96162 145.20774 2500 ft 143 kts 156°
2026-04-17 09:19 -37.97042 145.21362 2505 ft 143 kts 157°
2026-04-17 09:19 -37.97928 145.21950 2503 ft 144 kts 157°
2026-04-17 09:19 -37.98813 145.22540 2499 ft 143 kts 158°
2026-04-17 09:20 -37.99692 145.23127 2505 ft 143 kts 157°
2026-04-17 09:20 -38.00478 145.23923 2499 ft 149 kts 136°
2026-04-17 09:20 -38.00983 145.25088 2495 ft 155 kts 114°
2026-04-17 09:20 -38.01181 145.26439 2495 ft 156 kts 105°
2026-04-17 09:21 -38.01368 145.27809 2497 ft 159 kts 106°
2026-04-17 09:21 -38.01557 145.29192 2498 ft 159 kts 106°
2026-04-17 09:21 -38.01781 145.30557 2493 ft 156 kts 112°
2026-04-17 09:21 -38.02077 145.31891 2497 ft 158 kts 111°
2026-04-17 09:22 -38.02363 145.33236 2497 ft 159 kts 111°
2026-04-17 09:22 -38.02653 145.34592 2493 ft 159 kts 111°
2026-04-17 09:22 -38.02941 145.35943 2497 ft 159 kts 111°
2026-04-17 09:22 -38.03231 145.37291 2493 ft 158 kts 111°
2026-04-17 09:23 -38.03519 145.38640 2494 ft 159 kts 111°
2026-04-17 09:23 -38.03811 145.39994 2492 ft 159 kts 111°
2026-04-17 09:23 -38.04096 145.41343 2493 ft 158 kts 111°
2026-04-17 09:23 -38.04382 145.42685 2492 ft 158 kts 111°
2026-04-17 09:24 -38.04671 145.44031 2495 ft 158 kts 111°
2026-04-17 09:24 -38.04958 145.45378 2493 ft 158 kts 111°
2026-04-17 09:24 -38.05243 145.46723 2495 ft 158 kts 111°
2026-04-17 09:24 -38.05531 145.48070 2495 ft 159 kts 111°
2026-04-17 09:25 -38.05823 145.49417 2495 ft 159 kts 111°
2026-04-17 09:25 -38.06111 145.50777 2497 ft 160 kts 111°
2026-04-17 09:25 -38.06399 145.52145 2494 ft 160 kts 111°
2026-04-17 09:25 -38.06690 145.53513 2499 ft 160 kts 111°
2026-04-17 09:26 -38.06981 145.54882 2496 ft 161 kts 111°
2026-04-17 09:26 -38.07272 145.56252 2496 ft 161 kts 111°
2026-04-17 09:26 -38.07562 145.57621 2496 ft 161 kts 111°
2026-04-17 09:26 -38.07852 145.58989 2496 ft 161 kts 111°
2026-04-17 09:27 -38.08046 145.59896 2495 ft 160 kts 111°
2026-04-17 09:27 -38.08332 145.61255 2498 ft 160 kts 110°
2026-04-17 09:27 -38.08621 145.62621 2496 ft 160 kts 111°
2026-04-17 09:27 -38.08911 145.63986 2494 ft 160 kts 110°
2026-04-17 09:28 -38.09199 145.65351 2495 ft 160 kts 110°
2026-04-17 09:28 -38.09488 145.66717 2495 ft 161 kts 110°
2026-04-17 09:28 -38.09776 145.68082 2494 ft 160 kts 110°
2026-04-17 09:28 -38.10063 145.69443 2494 ft 160 kts 111°
2026-04-17 09:29 -38.10350 145.70802 2493 ft 159 kts 111°
2026-04-17 09:29 -38.10638 145.72165 2495 ft 160 kts 111°
2026-04-17 09:29 -38.10928 145.73533 2495 ft 160 kts 111°
2026-04-17 09:29 -38.11217 145.74903 2497 ft 161 kts 111°
2026-04-17 09:30 -38.11506 145.76276 2496 ft 161 kts 111°
2026-04-17 09:30 -38.11795 145.77648 2497 ft 161 kts 111°
2026-04-17 09:30 -38.12081 145.79021 2506 ft 162 kts 111°
2026-04-17 09:30 -38.12375 145.80416 2501 ft 164 kts 111°
2026-04-17 09:31 -38.12668 145.81810 2500 ft 163 kts 110°
2026-04-17 09:31 -38.12960 145.83204 2502 ft 165 kts 111°
2026-04-17 09:31 -38.13259 145.84617 2504 ft 165 kts 111°
2026-04-17 09:31 -38.13469 145.86058 2499 ft 167 kts 103°
2026-04-17 09:32 -38.13640 145.87515 2496 ft 166 kts 104°
2026-04-17 09:32 -38.13819 145.88975 2493 ft 168 kts 104°
2026-04-17 09:32 -38.13997 145.90438 2499 ft 168 kts 105°
2026-04-17 09:32 -38.14169 145.91897 2495 ft 165 kts 104°
2026-04-17 09:33 -38.14352 145.93344 2497 ft 166 kts 105°
2026-04-17 09:33 -38.14528 145.94797 2498 ft 167 kts 104°
2026-04-17 09:33 -38.14699 145.96260 2498 ft 167 kts 104°
2026-04-17 09:33 -38.14877 145.97715 2494 ft 166 kts 104°
2026-04-17 09:34 -38.15056 145.99167 2495 ft 166 kts 104°
2026-04-17 09:34 -38.15225 146.00617 2489 ft 166 kts 104°
2026-04-17 09:34 -38.15399 146.02073 2485 ft 166 kts 104°
2026-04-17 09:34 -38.15578 146.03522 2485 ft 166 kts 105°
2026-04-17 09:35 -38.15752 146.04969 2506 ft 166 kts 105°
2026-04-17 09:35 -38.15926 146.06435 2490 ft 167 kts 105°
2026-04-17 09:35 -38.16098 146.07873 2490 ft 167 kts 105°
2026-04-17 09:35 -38.16277 146.09327 2493 ft 167 kts 105°
2026-04-17 09:36 -38.16452 146.10815 2490 ft 169 kts 104°
2026-04-17 09:36 -38.16624 146.12284 2490 ft 168 kts 105°
2026-04-17 09:36 -38.16805 146.13744 2487 ft 168 kts 104°
2026-04-17 09:36 -38.16981 146.15221 2482 ft 168 kts 103°
2026-04-17 09:37 -38.17149 146.16668 2484 ft 167 kts 103°
2026-04-17 09:37 -38.17321 146.18132 2487 ft 168 kts 103°
2026-04-17 09:37 -38.17498 146.19602 2485 ft 168 kts 103°
2026-04-17 09:37 -38.17674 146.21085 2481 ft 169 kts 103°
2026-04-17 09:38 -38.17851 146.22560 2477 ft 168 kts 103°
2026-04-17 09:38 -38.18012 146.24002 2482 ft 167 kts 101°
2026-04-17 09:38 -38.18163 146.25480 2479 ft 166 kts 107°
2026-04-17 09:38 -38.18394 146.26923 2365 ft 174 kts 104°
2026-04-17 09:39 -38.18560 146.28452 2187 ft 176 kts 101°
2026-04-17 09:39 -38.18734 146.30014 2008 ft 180 kts 102°
2026-04-17 09:39 -38.19026 146.31541 1824 ft 176 kts 115°
2026-04-17 09:39 -38.19381 146.32955 1647 ft 164 kts 114°
2026-04-17 09:40 -38.19686 146.34315 1484 ft 154 kts 113°
2026-04-17 09:40 -38.19990 146.35571 1473 ft 145 kts 113°
2026-04-17 09:40 -38.20293 146.36784 1470 ft 143 kts 114°
2026-04-17 09:40 -38.20593 146.37973 1475 ft 140 kts 114°
2026-04-17 09:41 -38.20887 146.39152 1474 ft 139 kts 114°
2026-04-17 09:41 -38.21185 146.40323 1473 ft 140 kts 114°
2026-04-17 09:41 -38.21479 146.41503 1472 ft 140 kts 114°
2026-04-17 09:41 -38.21774 146.42682 1475 ft 138 kts 114°
2026-04-17 09:42 -38.22059 146.43848 1475 ft 138 kts 114°
2026-04-17 09:42 -38.22245 146.45028 1352 ft 139 kts 98°
2026-04-17 09:42 -38.22198 146.46262 1195 ft 139 kts 81°
2026-04-17 09:42 -38.21837 146.47318 1050 ft 121 kts 51°
2026-04-17 09:43 -38.21319 146.48044 965 ft 111 kts 46°
2026-04-17 09:43 -38.20880 146.48786 895 ft 101 kts 40°
2026-04-17 09:43 -38.20305 146.48806 671 ft 85 kts 302°
2026-04-17 09:43 -38.20319 146.48131 398 ft 84 kts 240°
2026-04-17 09:44 -38.20704 146.47596 206 ft 75 kts 230°
2026-04-17 09:44 -38.21008 146.47196 190 ft 51 kts 231°
2026-04-17 09:44 -38.21329 146.46800 233 ft 82 kts 227°
2026-04-17 09:44 -38.21916 146.46657 437 ft 107 kts 157°
2026-04-17 09:45 -38.22266 146.47522 650 ft 123 kts 83°
2026-04-17 09:45 -38.21901 146.48532 866 ft 127 kts 56°
2026-04-17 09:45 -38.21390 146.49532 973 ft 137 kts 54°
2026-04-17 09:45 -38.20872 146.50549 1135 ft 139 kts 55°
2026-04-17 09:46 -38.20320 146.51613 1217 ft 144 kts 54°
2026-04-17 09:46 -38.19720 146.52592 1437 ft 139 kts 51°
2026-04-17 09:46 -38.19276 146.53750 1382 ft 153 kts 82°
2026-04-17 09:46 -38.19130 146.55045 1606 ft 146 kts 84°
2026-04-17 09:47 -38.18921 146.56343 1680 ft 153 kts 81°
2026-04-17 09:47 -38.18668 146.57636 1829 ft 152 kts 77°
2026-04-17 09:47 -38.18330 146.58942 1827 ft 162 kts 73°
2026-04-17 09:47 -38.18002 146.60342 1802 ft 164 kts 78°
2026-04-17 09:48 -38.17674 146.61709 1805 ft 165 kts 75°
2026-04-17 09:48 -38.17362 146.63161 1545 ft 172 kts 77°
2026-04-17 09:48 -38.17042 146.64569 1598 ft 159 kts 77°
2026-04-17 09:48 -38.16731 146.65884 1590 ft 154 kts 76°
2026-04-17 09:49 -38.16466 146.67221 1497 ft 156 kts 79°
2026-04-17 09:49 -38.16195 146.68525 1514 ft 151 kts 72°
2026-04-17 09:49 -38.15863 146.69828 1364 ft 158 kts 73°
2026-04-17 09:49 -38.15644 146.71151 1433 ft 149 kts 84°
2026-04-17 09:50 -38.15606 146.72459 1440 ft 147 kts 90°
2026-04-17 09:50 -38.15571 146.73738 1418 ft 147 kts 88°
2026-04-17 09:50 -38.15479 146.75055 1365 ft 148 kts 83°
2026-04-17 09:50 -38.15278 146.76351 1295 ft 152 kts 77°
2026-04-17 09:51 -38.15049 146.77625 1329 ft 143 kts 73°
2026-04-17 09:51 -38.14814 146.78859 1235 ft 145 kts 77°
2026-04-17 09:51 -38.14549 146.80100 1167 ft 143 kts 73°
2026-04-17 09:51 -38.14230 146.81286 1151 ft 142 kts 64°
2026-04-17 09:52 -38.13718 146.82364 1081 ft 142 kts 53°
2026-04-17 09:52 -38.13195 146.83402 1071 ft 141 kts 58°
2026-04-17 09:52 -38.12735 146.84484 1062 ft 140 kts 65°
2026-04-17 09:52 -38.12261 146.85626 942 ft 149 kts 58°
2026-04-17 09:53 -38.11791 146.86777 932 ft 146 kts 65°
2026-04-17 09:53 -38.11390 146.87962 948 ft 146 kts 65°
2026-04-17 09:53 -38.11005 146.89146 942 ft 145 kts 70°
2026-04-17 09:53 -38.10733 146.90377 922 ft 147 kts 80°
2026-04-17 09:54 -38.10510 146.91629 945 ft 144 kts 78°
2026-04-17 09:54 -38.10322 146.92915 797 ft 150 kts 82°
2026-04-17 09:54 -38.10224 146.94140 994 ft 135 kts 87°
2026-04-17 09:54 -38.10001 146.95370 869 ft 146 kts 72°
2026-04-17 09:55 -38.09797 146.96548 976 ft 134 kts 87°
2026-04-17 09:55 -38.09706 146.97639 782 ft 120 kts 84°
2026-04-17 09:55 -38.09655 146.98663 600 ft 110 kts 84°
2026-04-17 09:55 -38.09209 146.99169 485 ft 82 kts 329°
2026-04-17 09:56 -38.09179 146.98575 275 ft 74 kts 251°
2026-04-17 09:56 -38.09249 146.97971 162 ft 67 kts 275°
2026-04-17 09:56 -38.09197 146.97415 89 ft 60 kts 277°
2026-04-17 09:56 -38.09147 146.96967 82 ft 43 kts 276°
2026-04-17 09:57 -38.09151 146.96780 74 ft 13 kts 195°
2026-04-17 09:57 -38.09215 146.96801 76 ft 9 kts 102°
2026-04-17 09:57 -38.09225 146.96867 79 ft 8 kts 108°
2026-04-17 09:57 -38.09255 146.96936 79 ft 10 kts 128°
2026-04-17 09:58 -38.09296 146.97003 80 ft 7 kts 100°
2026-04-17 09:58 -38.09298 146.97026 81 ft 0 kts 96°